Weather History for Toledo, OH

Change the Weather History Date:

Monday, April 7, 2014

  Actual Average Record
Temperature  
Mean Temperature 41 °F 46 °F  
Max Temperature 49 °F 57 °F 83 °F (1991)
Min Temperature 33 °F 36 °F 8 °F (1982)
Degree Days  
Heating Degree Days 24 19  
Month to date heating degree days 158 140  
Since 1 July heating degree days 6602 5566  
Cooling Degree Days 0 0  
Month to date cooling degree days 0 0  
Year to date cooling degree days 0 0  
Moisture  
Dew Point 33 °F    
Average Humidity 72    
Maximum Humidity 93    
Minimum Humidity 50    
Precipitation  
Precipitation 0.45 in 0.11 in 0.49 in (1957)
Month to date precipitation 1.64 0.71  
Year to date precipitation 10.21 7.31  
Snow  
Snow 0.00 in 0.10 in - ()
Month to date snowfall T 0.6  
Since 1 July snowfall 85.3 36.8  
Snow Depth 0.00 in    
Sea Level Pressure  
Sea Level Pressure 29.71 in    
Wind  
Wind Speed 10 mph (NE)    
Max Wind Speed 21 mph    
Max Gust Speed 26 mph    
Visibility 10 miles    
Events Rain    
T = Trace of Precipitation, MM = Missing Value Source: NWS Daily Summary

Daily Weather History Graph

Daily Weather History Graph

Search for Another Location

Airport:

Trip Planner

Search our weather history database for the weather conditions in past years. The results will help you decide how hot, cold, wet, or windy it might be!

Date:

Astronomy

Apr. 07, 2014 Rise Set
Actual Time 7:08 AM EDT 8:07 PM EDT
Civil Twilight 6:39 AM EDT 8:35 PM EDT
Nautical Twilight 6:06 AM EDT 9:09 PM EDT
Astronomical Twilight 5:31 AM EDT 9:44 PM EDT
Moon 1:01 PM EDT (4/7) 2:45 AM EDT (4/7)
Length of Visible Light 13h 55m
Length of Day
12h 58m
First Quarter, 53% of the Moon is Illuminated
Apr 7
First Quarter
Apr 15
Full
Apr 22
Last Quarter
Apr 29
New
May 6
First Quarter

Hourly Weather History & Observations

Time (EDT) Temp. Windchill Dew Point Humidity Pressure Visibility Wind Dir Wind Speed Gust Speed Precip Events Conditions
12:52 AM 37.0 °F 34.5 °F 24.1 °F 59% 30.01 in 10.0 mi NE 3.5 mph - N/A   Clear
1:52 AM 36.0 °F 32.1 °F 24.1 °F 62% 30.00 in 10.0 mi ENE 4.6 mph - N/A   Clear
2:52 AM 35.1 °F 30.1 °F 26.1 °F 70% 29.97 in 10.0 mi NE 5.8 mph - N/A   Clear
3:52 AM 34.0 °F 29.8 °F 27.0 °F 75% 29.93 in 10.0 mi NE 4.6 mph - N/A   Clear
4:52 AM 33.1 °F 27.7 °F 28.0 °F 82% 29.90 in 10.0 mi NE 5.8 mph - N/A   Clear
5:52 AM 34.0 °F 27.2 °F 28.9 °F 82% 29.87 in 10.0 mi NE 8.1 mph - N/A   Clear
6:52 AM 37.0 °F 31.6 °F 28.9 °F 73% 29.88 in 10.0 mi East 6.9 mph - N/A   Clear
7:52 AM 37.9 °F 32.7 °F 30.0 °F 73% 29.86 in 10.0 mi ENE 6.9 mph - N/A   Clear
8:52 AM 39.9 °F 37.8 °F 30.0 °F 68% 29.86 in 10.0 mi ENE 3.5 mph - N/A   Clear
9:52 AM 39.9 °F 36.7 °F 30.9 °F 70% 29.86 in 10.0 mi NNE 4.6 mph - N/A   Overcast
10:52 AM 44.1 °F 37.1 °F 30.9 °F 60% 29.79 in 10.0 mi NE 15.0 mph - N/A   Mostly Cloudy
11:52 AM 46.9 °F - 30.9 °F 54% 29.78 in 10.0 mi East 13.8 mph - N/A   Overcast
12:52 PM 48.0 °F - 30.9 °F 52% 29.72 in 10.0 mi East 12.7 mph - N/A   Overcast
1:52 PM 48.0 °F - 32.0 °F 54% 29.68 in 10.0 mi ENE 10.4 mph - N/A   Overcast
2:52 PM 46.9 °F - 30.9 °F 54% 29.61 in 10.0 mi ENE 16.1 mph - N/A   Overcast
3:52 PM 45.0 °F 41.8 °F 34.0 °F 65% 29.59 in 10.0 mi NE 5.8 mph - 0.00 in Rain Light Rain
4:52 PM 42.1 °F 38.4 °F 37.0 °F 82% 29.62 in 6.0 mi NE 5.8 mph - 0.09 in Rain Rain
5:52 PM 42.1 °F 34.5 °F 39.0 °F 89% 29.54 in 10.0 mi NE 15.0 mph - 0.09 in Rain Rain
6:52 PM 42.1 °F 34.9 °F 39.9 °F 92% 29.53 in 10.0 mi NNE 13.8 mph - 0.05 in Rain Light Rain
7:50 PM 42.8 °F 36.2 °F 39.2 °F 87% 29.49 in 10.0 mi North 12.7 mph - 0.06 in Rain Light Rain
7:52 PM 42.1 °F 34.2 °F 39.9 °F 92% 29.50 in 10.0 mi North 16.1 mph - 0.06 in Rain Light Rain
8:52 PM 42.1 °F 34.9 °F 39.9 °F 92% 29.50 in 9.0 mi North 13.8 mph 23.0 mph 0.08 in Rain Light Rain
9:52 PM 42.1 °F 34.9 °F 39.9 °F 92% 29.49 in 10.0 mi North 13.8 mph 23.0 mph 0.01 in Rain Light Rain
10:52 PM 42.1 °F 34.9 °F 39.9 °F 92% 29.48 in 7.0 mi North 13.8 mph - 0.01 in Rain Light Rain
11:06 PM 42.8 °F 35.1 °F 39.2 °F 87% 29.46 in 8.0 mi North 16.1 mph 21.9 mph 0.00 in Rain Light Rain
11:52 PM 41.0 °F 34.7 °F 39.9 °F 96% 29.46 in 7.0 mi North 10.4 mph - 0.03 in Rain Light Rain